Time,TemperatureF,DewpointF,PressureIn,WindDirection,WindDirectionDegrees,WindSpeedMPH,WindSpeedGustMPH,Humidity,HourlyPrecipIn,Conditions,Clouds,dailyrainin,SoftwareType,DateUTC
2013-02-19 00:04:00,11.7,2.2,29.70,SSW,203,2.0,13.0,65,0.00,,,0.00,Wunderground v.1.15,2013-02-19 09:04:00,
2013-02-19 00:10:00,11.7,2.2,29.69,SE,139,1.0,13.0,65,0.00,,,0.00,Wunderground v.1.15,2013-02-19 09:10:00,
2013-02-19 00:16:00,11.6,2.4,29.70,ESE,108,2.0,13.0,66,0.00,,,0.00,Wunderground v.1.15,2013-02-19 09:16:00,
2013-02-19 00:22:00,11.5,2.3,29.70,ESE,108,2.0,13.0,66,0.00,,,0.00,Wunderground v.1.15,2013-02-19 09:22:00,
2013-02-19 00:27:00,11.3,2.1,29.70,ESE,115,2.0,13.0,66,0.00,,,0.00,Wunderground v.1.15,2013-02-19 09:27:00,
2013-02-19 00:33:00,11.3,2.1,29.70,SE,132,3.0,13.0,66,0.00,,,0.00,Wunderground v.1.15,2013-02-19 09:33:00,
2013-02-19 00:39:00,11.3,2.1,29.70,South,185,2.0,13.0,66,0.00,,,0.00,Wunderground v.1.15,2013-02-19 09:39:00,
2013-02-19 00:45:00,11.2,2.4,29.70,WSW,252,1.0,13.0,67,0.00,,,0.00,Wunderground v.1.15,2013-02-19 09:45:00,
2013-02-19 00:50:00,11.1,2.3,29.69,SSW,204,1.0,1.0,67,0.00,,,0.00,Wunderground v.1.15,2013-02-19 09:50:00,
2013-02-19 00:56:00,11.0,2.2,29.69,South,191,0.0,13.0,67,0.00,,,0.00,Wunderground v.1.15,2013-02-19 09:56:00,
2013-02-19 01:02:00,10.9,2.1,29.69,South,184,0.0,13.0,67,0.00,,,0.00,Wunderground v.1.15,2013-02-19 10:02:00,
2013-02-19 01:07:00,10.8,2.0,29.70,South,184,0.0,13.0,67,0.00,,,0.00,Wunderground v.1.15,2013-02-19 10:07:00,
2013-02-19 01:13:00,10.7,1.9,29.69,South,177,0.0,13.0,67,0.00,,,0.00,Wunderground v.1.15,2013-02-19 10:13:00,
2013-02-19 01:18:00,10.3,1.8,29.69,NNE,33,0.0,13.0,68,0.00,,,0.00,Wunderground v.1.15,2013-02-19 10:18:00,
2013-02-19 01:24:00,10.2,1.7,29.69,NE,55,1.0,13.0,68,0.00,,,0.00,Wunderground v.1.15,2013-02-19 10:24:00,
2013-02-19 01:30:00,10.4,1.9,29.69,NE,56,1.0,13.0,68,0.00,,,0.00,Wunderground v.1.15,2013-02-19 10:30:00,
2013-02-19 01:35:00,10.3,1.8,29.70,NE,41,2.0,13.0,68,0.00,,,0.00,Wunderground v.1.15,2013-02-19 10:35:00,
2013-02-19 01:41:00,10.2,1.7,29.71,NE,39,3.0,3.0,68,0.00,,,0.00,Wunderground v.1.15,2013-02-19 10:41:00,
2013-02-19 01:46:00,10.3,1.8,29.71,NE,34,2.0,13.0,68,0.00,,,0.00,Wunderground v.1.15,2013-02-19 10:46:00,
2013-02-19 01:52:00,9.9,1.8,29.70,NE,49,2.0,13.0,69,0.00,,,0.00,Wunderground v.1.15,2013-02-19 10:52:00,
2013-02-19 01:59:00,9.9,1.8,29.71,ENE,58,2.0,13.0,69,0.00,,,0.00,Wunderground v.1.15,2013-02-19 10:59:00,
2013-02-19 02:05:00,10.2,2.0,29.71,NE,39,2.0,13.0,69,0.00,,,0.00,Wunderground v.1.15,2013-02-19 11:05:00,
2013-02-19 02:10:00,10.2,2.4,29.71,NE,38,3.0,13.0,70,0.00,,,0.00,Wunderground v.1.15,2013-02-19 11:10:00,
2013-02-19 02:16:00,10.2,2.7,29.71,NE,51,2.0,13.0,71,0.00,,,0.00,Wunderground v.1.15,2013-02-19 11:16:00,
2013-02-19 02:22:00,10.4,3.2,29.71,ENE,76,2.0,13.0,72,0.00,,,0.00,Wunderground v.1.15,2013-02-19 11:22:00,
2013-02-19 02:27:00,10.4,2.2,29.71,East,94,2.0,13.0,69,0.00,,,0.00,Wunderground v.1.15,2013-02-19 11:27:00,
2013-02-19 02:32:00,11.0,2.8,29.70,ESE,119,1.0,13.0,69,0.00,,,0.00,Wunderground v.1.15,2013-02-19 11:32:00,
2013-02-19 02:38:00,11.2,2.7,29.70,SSE,149,2.0,13.0,68,0.00,,,0.00,Wunderground v.1.15,2013-02-19 11:38:00,
2013-02-19 02:44:00,11.2,2.7,29.70,SE,135,2.0,13.0,68,0.00,,,0.00,Wunderground v.1.15,2013-02-19 11:44:00,
2013-02-19 02:50:00,11.1,2.6,29.71,East,97,1.0,13.0,68,0.00,,,0.00,Wunderground v.1.15,2013-02-19 11:50:00,
2013-02-19 02:55:00,11.0,2.8,29.71,NE,51,0.0,13.0,69,0.00,,,0.00,Wunderground v.1.15,2013-02-19 11:55:00,
2013-02-19 03:01:00,11.1,2.9,29.71,NE,44,0.0,13.0,69,0.00,,,0.00,Wunderground v.1.15,2013-02-19 12:01:00,
2013-02-19 03:07:00,11.1,2.9,29.71,NE,43,0.0,13.0,69,0.00,,,0.00,Wunderground v.1.15,2013-02-19 12:07:00,
2013-02-19 03:12:00,11.3,2.8,29.70,NE,42,0.0,13.0,68,0.00,,,0.00,Wunderground v.1.15,2013-02-19 12:12:00,
2013-02-19 03:18:00,11.5,3.0,29.70,NE,41,0.0,13.0,68,0.00,,,0.00,Wunderground v.1.15,2013-02-19 12:18:00,
2013-02-19 03:25:00,11.5,3.0,29.70,North,356,1.0,13.0,68,0.00,,,0.00,Wunderground v.1.15,2013-02-19 12:25:00,
2013-02-19 03:30:00,11.4,2.9,29.69,North,355,1.0,13.0,68,0.00,,,0.00,Wunderground v.1.15,2013-02-19 12:30:00,
2013-02-19 03:36:00,11.3,3.1,29.69,NNE,27,0.0,13.0,69,0.00,,,0.00,Wunderground v.1.15,2013-02-19 12:36:00,
2013-02-19 03:41:00,11.3,3.1,29.69,NE,41,0.0,13.0,69,0.00,,,0.00,Wunderground v.1.15,2013-02-19 12:41:00,
2013-02-19 03:47:00,11.4,3.2,29.68,SE,129,1.0,13.0,69,0.00,,,0.00,Wunderground v.1.15,2013-02-19 12:47:00,
2013-02-19 03:52:00,11.4,3.2,29.67,SE,136,3.0,13.0,69,0.00,,,0.00,Wunderground v.1.15,2013-02-19 12:52:00,
2013-02-19 03:58:00,11.3,3.1,29.67,SE,146,4.0,13.0,69,0.00,,,0.00,Wunderground v.1.15,2013-02-19 12:58:00,
2013-02-19 04:04:00,11.8,3.6,29.66,SE,146,5.0,13.0,69,0.00,,,0.00,Wunderground v.1.15,2013-02-19 13:04:00,
2013-02-19 04:10:00,11.8,3.6,29.66,East,101,4.0,13.0,69,0.00,,,0.00,Wunderground v.1.15,2013-02-19 13:10:00,
2013-02-19 04:15:00,11.8,3.6,29.66,SE,145,3.0,13.0,69,0.00,,,0.00,Wunderground v.1.15,2013-02-19 13:15:00,
2013-02-19 04:21:00,11.8,3.6,29.65,East,98,3.0,3.0,69,0.00,,,0.00,Wunderground v.1.15,2013-02-19 13:21:00,
2013-02-19 04:27:00,11.7,3.8,29.65,East,84,2.0,13.0,70,0.00,,,0.00,Wunderground v.1.15,2013-02-19 13:27:00,
2013-02-19 04:33:00,12.1,4.2,29.64,ESE,115,3.0,13.0,70,0.00,,,0.00,Wunderground v.1.15,2013-02-19 13:33:00,
2013-02-19 04:38:00,12.9,4.3,29.64,NNW,335,3.0,13.0,68,0.00,,,0.00,Wunderground v.1.15,2013-02-19 13:38:00,
2013-02-19 04:44:00,12.6,4.0,29.64,North,354,1.0,13.0,68,0.00,,,0.00,Wunderground v.1.15,2013-02-19 13:44:00,
2013-02-19 04:50:00,12.3,4.1,29.63,NNE,17,1.0,13.0,69,0.00,,,0.00,Wunderground v.1.15,2013-02-19 13:50:00,
2013-02-19 04:55:00,12.5,4.3,29.63,NNE,28,1.0,13.0,69,0.00,,,0.00,Wunderground v.1.15,2013-02-19 13:55:00,
2013-02-19 05:01:00,13.3,5.0,29.63,ESE,115,2.0,4.0,69,0.00,,,0.00,Wunderground v.1.15,2013-02-19 14:01:00,
2013-02-19 05:06:00,15.3,6.0,29.63,SE,129,3.0,5.0,66,0.00,,,0.00,Wunderground v.1.15,2013-02-19 14:06:00,
2013-02-19 05:12:00,16.2,6.1,29.63,SE,130,4.0,4.0,64,0.00,,,0.00,Wunderground v.1.15,2013-02-19 14:12:00,
2013-02-19 05:17:00,16.7,6.3,29.63,SSE,149,4.0,4.0,63,0.00,,,0.00,Wunderground v.1.15,2013-02-19 14:17:00,
2013-02-19 05:23:00,17.6,6.4,29.63,SSE,149,4.0,4.0,61,0.00,,,0.00,Wunderground v.1.15,2013-02-19 14:23:00,
2013-02-19 05:29:00,18.1,6.5,29.63,ENE,63,2.0,4.0,60,0.00,,,0.00,Wunderground v.1.15,2013-02-19 14:29:00,
2013-02-19 05:35:00,17.1,6.7,29.63,NNE,25,1.0,2.0,63,0.00,,,0.00,Wunderground v.1.15,2013-02-19 14:35:00,
2013-02-19 05:41:00,16.8,6.4,29.63,NNE,25,1.0,1.0,63,0.00,,,0.00,Wunderground v.1.15,2013-02-19 14:41:00,
2013-02-19 05:46:00,16.9,6.5,29.62,ENE,63,1.0,2.0,63,0.00,,,0.00,Wunderground v.1.15,2013-02-19 14:46:00,
2013-02-19 05:52:00,17.3,6.5,29.62,East,91,1.0,1.0,62,0.00,,,0.00,Wunderground v.1.15,2013-02-19 14:52:00,
2013-02-19 05:58:00,17.5,6.7,29.62,East,89,1.0,1.0,62,0.00,,,0.00,Wunderground v.1.15,2013-02-19 14:58:00,
2013-02-19 06:03:00,17.5,6.7,29.62,East,89,0.0,5.0,62,0.00,,,0.00,Wunderground v.1.15,2013-02-19 15:03:00,
2013-02-19 06:09:00,17.4,7.6,29.62,North,356,1.0,5.0,65,0.00,,,0.00,Wunderground v.1.15,2013-02-19 15:09:00,
2013-02-19 06:15:00,16.1,7.1,29.61,NNE,19,1.0,5.0,67,0.00,,,0.00,Wunderground v.1.15,2013-02-19 15:15:00,
2013-02-19 06:21:00,15.2,7.2,29.61,NE,41,1.0,5.0,70,0.00,,,0.00,Wunderground v.1.15,2013-02-19 15:21:00,
2013-02-19 06:26:00,15.8,6.8,29.61,NNE,23,1.0,5.0,67,0.00,,,0.00,Wunderground v.1.15,2013-02-19 15:26:00,
2013-02-19 06:32:00,16.3,6.6,29.61,NNW,332,1.0,5.0,65,0.00,,,0.00,Wunderground v.1.15,2013-02-19 15:32:00,
2013-02-19 06:37:00,15.5,6.8,29.61,NNW,344,1.0,5.0,68,0.00,,,0.00,Wunderground v.1.15,2013-02-19 15:37:00,
2013-02-19 06:43:00,15.5,7.1,29.60,NE,41,0.0,5.0,69,0.00,,,0.00,Wunderground v.1.15,2013-02-19 15:43:00,
2013-02-19 06:49:00,15.7,6.7,29.60,NE,41,1.0,5.0,67,0.00,,,0.00,Wunderground v.1.15,2013-02-19 15:49:00,
2013-02-19 06:54:00,15.9,6.9,29.60,ENE,71,1.0,5.0,67,0.00,,,0.00,Wunderground v.1.15,2013-02-19 15:54:00,
2013-02-19 07:00:00,16.1,7.1,29.60,East,79,2.0,5.0,67,0.00,,,0.00,Wunderground v.1.15,2013-02-19 16:00:00,
2013-02-19 07:06:00,16.8,7.7,29.59,ESE,123,4.0,5.0,67,0.00,,,0.00,Wunderground v.1.15,2013-02-19 16:06:00,
2013-02-19 07:12:00,17.3,7.9,29.59,ESE,110,4.0,5.0,66,0.00,,,0.00,Wunderground v.1.15,2013-02-19 16:12:00,
2013-02-19 07:17:00,17.9,7.8,29.59,SE,129,4.0,5.0,64,0.00,,,0.00,Wunderground v.1.15,2013-02-19 16:17:00,
2013-02-19 07:23:00,18.4,7.5,29.59,SE,133,4.0,5.0,62,0.00,,,0.00,Wunderground v.1.15,2013-02-19 16:23:00,
2013-02-19 07:29:00,18.6,7.7,29.59,SE,131,4.0,5.0,62,0.00,,,0.00,Wunderground v.1.15,2013-02-19 16:29:00,
2013-02-19 07:35:00,18.7,7.5,29.59,ESE,119,4.0,5.0,61,0.00,,,0.00,Wunderground v.1.15,2013-02-19 16:35:00,
2013-02-19 07:40:00,18.6,7.4,29.59,ENE,78,2.0,5.0,61,0.00,,,0.00,Wunderground v.1.15,2013-02-19 16:40:00,
2013-02-19 07:46:00,18.5,7.3,29.58,ESE,102,2.0,5.0,61,0.00,,,0.00,Wunderground v.1.15,2013-02-19 16:46:00,
2013-02-19 07:52:00,18.6,7.4,29.58,East,91,3.0,5.0,61,0.00,,,0.00,Wunderground v.1.15,2013-02-19 16:52:00,
2013-02-19 07:58:00,18.3,7.8,29.57,ENE,68,2.0,5.0,63,0.00,,,0.00,Wunderground v.1.15,2013-02-19 16:58:00,
2013-02-19 08:03:00,18.2,7.7,29.57,SE,127,2.0,5.0,63,0.00,,,0.00,Wunderground v.1.15,2013-02-19 17:03:00,
2013-02-19 08:09:00,18.8,7.9,29.56,ESE,108,2.0,5.0,62,0.00,,,0.00,Wunderground v.1.15,2013-02-19 17:09:00,
2013-02-19 08:15:00,19.0,7.7,29.56,ESE,108,2.0,5.0,61,0.00,,,0.00,Wunderground v.1.15,2013-02-19 17:15:00,
2013-02-19 08:20:00,19.3,7.7,29.55,East,91,1.0,5.0,60,0.00,,,0.00,Wunderground v.1.15,2013-02-19 17:20:00,
2013-02-19 08:26:00,19.0,7.4,29.55,East,93,1.0,5.0,60,0.00,,,0.00,Wunderground v.1.15,2013-02-19 17:26:00,
2013-02-19 08:33:00,19.0,7.4,29.54,East,91,1.0,5.0,60,0.00,,,0.00,Wunderground v.1.15,2013-02-19 17:33:00,
2013-02-19 08:39:00,19.0,7.4,29.53,East,86,1.0,5.0,60,0.00,,,0.00,Wunderground v.1.15,2013-02-19 17:39:00,
2013-02-19 08:44:00,19.0,7.4,29.53,East,86,1.0,5.0,60,0.00,,,0.00,Wunderground v.1.15,2013-02-19 17:44:00,
2013-02-19 08:50:00,19.8,7.0,29.53,SE,145,2.0,5.0,57,0.00,,,0.00,Wunderground v.1.15,2013-02-19 17:50:00,
2013-02-19 08:56:00,20.2,6.6,29.53,ESE,120,2.0,5.0,55,0.00,,,0.00,Wunderground v.1.15,2013-02-19 17:56:00,
2013-02-19 09:02:00,20.6,6.6,29.52,East,79,1.0,5.0,54,0.00,,,0.00,Wunderground v.1.15,2013-02-19 18:02:00,
2013-02-19 09:07:00,20.5,6.5,29.52,East,79,0.0,5.0,54,0.00,,,0.00,Wunderground v.1.15,2013-02-19 18:07:00,
2013-02-19 09:13:00,20.9,6.0,29.52,ESE,115,1.0,5.0,52,0.00,,,0.00,Wunderground v.1.15,2013-02-19 18:13:00,
2013-02-19 09:19:00,21.2,6.3,29.52,SSE,158,2.0,5.0,52,0.00,,,0.00,Wunderground v.1.15,2013-02-19 18:19:00,
2013-02-19 09:24:00,21.7,6.8,29.51,South,172,3.0,5.0,52,0.00,,,0.00,Wunderground v.1.15,2013-02-19 18:24:00,
2013-02-19 09:30:00,22.0,7.0,29.51,SSE,159,4.0,4.0,52,0.00,,,0.00,Wunderground v.1.15,2013-02-19 18:30:00,
2013-02-19 09:37:00,22.3,7.3,29.50,South,170,2.0,5.0,52,0.00,,,0.00,Wunderground v.1.15,2013-02-19 18:37:00,
2013-02-19 09:43:00,22.7,7.7,29.50,SSW,201,3.0,7.0,52,0.00,,,0.00,Wunderground v.1.15,2013-02-19 18:43:00,
2013-02-19 09:49:00,23.0,8.4,29.50,South,172,5.0,7.0,53,0.00,,,0.00,Wunderground v.1.15,2013-02-19 18:49:00,
2013-02-19 09:54:00,23.5,8.9,29.49,SSE,163,5.0,5.0,53,0.00,,,0.00,Wunderground v.1.15,2013-02-19 18:54:00,
2013-02-19 10:00:00,23.7,9.5,29.49,South,181,4.0,6.0,54,0.00,,,0.00,Wunderground v.1.15,2013-02-19 19:00:00,
2013-02-19 10:06:00,24.0,10.2,29.49,East,93,2.0,5.0,55,0.00,,,0.00,Wunderground v.1.15,2013-02-19 19:06:00,
2013-02-19 10:11:00,24.2,10.7,29.49,South,184,1.0,5.0,56,0.00,,,0.00,Wunderground v.1.15,2013-02-19 19:11:00,
2013-02-19 10:17:00,24.4,11.7,29.49,SSE,153,1.0,5.0,58,0.00,,,0.00,Wunderground v.1.15,2013-02-19 19:17:00,
2013-02-19 10:23:00,24.6,12.3,29.48,SSE,159,1.0,5.0,59,0.00,,,0.00,Wunderground v.1.15,2013-02-19 19:23:00,
2013-02-19 10:29:00,24.8,12.5,29.48,ESE,122,1.0,5.0,59,0.00,,,0.00,Wunderground v.1.15,2013-02-19 19:29:00,
2013-02-19 10:35:00,24.9,13.0,29.48,ESE,121,2.0,5.0,60,0.00,,,0.00,Wunderground v.1.15,2013-02-19 19:35:00,
2013-02-19 10:40:00,25.1,13.2,29.48,East,95,1.0,5.0,60,0.00,,,0.00,Wunderground v.1.15,2013-02-19 19:40:00,
2013-02-19 10:45:00,25.1,13.2,29.48,SSW,210,1.0,5.0,60,0.00,,,0.00,Wunderground v.1.15,2013-02-19 19:45:00,
2013-02-19 10:51:00,25.0,13.4,29.47,South,188,1.0,5.0,61,0.00,,,0.00,Wunderground v.1.15,2013-02-19 19:51:00,
2013-02-19 10:57:00,25.1,14.6,29.47,South,173,2.0,6.0,64,0.00,,,0.00,Wunderground v.1.15,2013-02-19 19:57:00,
2013-02-19 11:02:00,25.2,15.1,29.46,South,179,4.0,5.0,65,0.00,,,0.00,Wunderground v.1.15,2013-02-19 20:02:00,
2013-02-19 11:08:00,25.3,15.5,29.45,South,191,4.0,8.0,66,0.00,,,0.00,Wunderground v.1.15,2013-02-19 20:08:00,
2013-02-19 11:13:00,25.2,15.8,29.45,SW,222,4.0,8.0,67,0.00,,,0.00,Wunderground v.1.15,2013-02-19 20:13:00,
2013-02-19 11:20:00,25.3,15.9,29.45,South,171,6.0,8.0,67,0.00,,,0.00,Wunderground v.1.15,2013-02-19 20:20:00,
2013-02-19 11:26:00,25.5,16.4,29.45,SW,225,6.0,7.0,68,0.00,,,0.00,Wunderground v.1.15,2013-02-19 20:26:00,
2013-02-19 11:31:00,25.8,17.7,29.44,South,191,5.0,5.0,71,0.00,,,0.00,Wunderground v.1.15,2013-02-19 20:31:00,
2013-02-19 11:38:00,25.8,16.7,29.43,South,188,6.0,10.0,68,0.00,,,0.00,Wunderground v.1.15,2013-02-19 20:38:00,
2013-02-19 11:43:00,25.8,17.4,29.43,SSW,196,7.0,8.0,70,0.00,,,0.00,Wunderground v.1.15,2013-02-19 20:43:00,
2013-02-19 11:49:00,26.0,17.6,29.42,SSW,204,7.0,10.0,70,0.00,,,0.00,Wunderground v.1.15,2013-02-19 20:49:00,
2013-02-19 11:55:00,26.1,17.6,29.42,South,184,7.0,10.0,70,0.00,,,0.00,Wunderground v.1.15,2013-02-19 20:55:00,
2013-02-19 12:00:00,26.3,17.8,29.42,SSE,167,7.0,10.0,70,0.00,,,0.00,Wunderground v.1.15,2013-02-19 21:00:00,
2013-02-19 12:06:00,26.6,18.5,29.41,SW,219,5.0,7.0,71,0.00,,,0.00,Wunderground v.1.15,2013-02-19 21:06:00,
2013-02-19 12:11:00,26.8,18.7,29.41,South,187,4.0,6.0,71,0.00,,,0.00,Wunderground v.1.15,2013-02-19 21:11:00,
2013-02-19 12:17:00,26.9,18.7,29.40,SSW,203,5.0,7.0,71,0.00,,,0.00,Wunderground v.1.15,2013-02-19 21:17:00,
2013-02-19 12:24:00,26.9,18.7,29.40,South,184,4.0,6.0,71,0.00,,,0.00,Wunderground v.1.15,2013-02-19 21:24:00,
2013-02-19 12:30:00,26.9,19.1,29.39,SSW,198,4.0,6.0,72,0.00,,,0.00,Wunderground v.1.15,2013-02-19 21:30:00,
2013-02-19 12:36:00,27.0,19.2,29.38,SSW,196,5.0,10.0,72,0.00,,,0.00,Wunderground v.1.15,2013-02-19 21:36:00,
2013-02-19 12:41:00,27.1,19.6,29.38,SSW,208,6.0,6.0,73,0.00,,,0.00,Wunderground v.1.15,2013-02-19 21:41:00,
2013-02-19 12:47:00,27.3,19.5,29.38,South,181,4.0,6.0,72,0.00,,,0.00,Wunderground v.1.15,2013-02-19 21:47:00,
2013-02-19 12:53:00,27.3,19.5,29.38,South,190,4.0,6.0,72,0.00,,,0.00,Wunderground v.1.15,2013-02-19 21:53:00,
2013-02-19 12:58:00,27.4,19.9,29.37,SSW,204,3.0,6.0,73,0.00,,,0.00,Wunderground v.1.15,2013-02-19 21:58:00,
2013-02-19 13:04:00,27.4,19.6,29.36,SSW,199,3.0,5.0,72,0.00,,,0.00,Wunderground v.1.15,2013-02-19 22:04:00,
2013-02-19 13:11:00,27.4,19.9,29.35,SW,219,4.0,5.0,73,0.00,,,0.00,Wunderground v.1.15,2013-02-19 22:11:00,
2013-02-19 13:17:00,27.6,20.4,29.35,SW,224,4.0,6.0,74,0.00,,,0.00,Wunderground v.1.15,2013-02-19 22:17:00,
2013-02-19 13:22:00,27.9,20.7,29.34,South,191,3.0,5.0,74,0.00,,,0.00,Wunderground v.1.15,2013-02-19 22:22:00,
2013-02-19 13:28:00,28.2,21.0,29.32,SSW,198,3.0,6.0,74,0.00,,,0.00,Wunderground v.1.15,2013-02-19 22:28:00,
2013-02-19 13:34:00,28.6,21.0,29.31,SSE,152,4.0,9.0,73,0.00,,,0.00,Wunderground v.1.15,2013-02-19 22:34:00,
2013-02-19 13:40:00,28.9,21.0,29.31,ESE,104,6.0,12.0,72,0.00,,,0.00,Wunderground v.1.15,2013-02-19 22:40:00,
2013-02-19 13:45:00,29.0,21.1,29.30,SSW,193,6.0,13.0,72,0.00,,,0.00,Wunderground v.1.15,2013-02-19 22:45:00,
2013-02-19 13:51:00,28.9,20.7,29.29,WSW,239,5.0,7.0,71,0.00,,,0.00,Wunderground v.1.15,2013-02-19 22:51:00,
2013-02-19 13:57:00,28.7,20.1,29.29,West,259,5.0,7.0,70,0.00,,,0.00,Wunderground v.1.15,2013-02-19 22:57:00,
2013-02-19 14:02:00,28.6,20.7,29.29,East,98,5.0,6.0,72,0.00,,,0.00,Wunderground v.1.15,2013-02-19 23:02:00,
2013-02-19 14:08:00,28.7,21.5,29.28,ESE,103,5.0,8.0,74,0.00,,,0.00,Wunderground v.1.15,2013-02-19 23:08:00,
2013-02-19 14:15:00,28.8,21.6,29.28,SSE,165,5.0,9.0,74,0.00,,,0.00,Wunderground v.1.15,2013-02-19 23:15:00,
2013-02-19 14:21:00,28.9,21.7,29.28,SSE,159,5.0,5.0,74,0.00,,,0.00,Wunderground v.1.15,2013-02-19 23:21:00,
2013-02-19 14:26:00,29.0,22.1,29.28,North,360,4.0,9.0,75,0.00,,,0.00,Wunderground v.1.15,2013-02-19 23:26:00,
2013-02-19 14:32:00,29.2,21.9,29.27,ENE,62,4.0,7.0,74,0.00,,,0.00,Wunderground v.1.15,2013-02-19 23:32:00,
2013-02-19 14:38:00,29.5,22.6,29.27,ENE,61,4.0,7.0,75,0.00,,,0.00,Wunderground v.1.15,2013-02-19 23:38:00,
2013-02-19 14:44:00,29.6,22.6,29.27,ENE,60,4.0,16.0,75,0.00,,,0.00,Wunderground v.1.15,2013-02-19 23:44:00,
2013-02-19 14:49:00,29.6,22.6,29.27,ESE,111,6.0,16.0,75,0.00,,,0.00,Wunderground v.1.15,2013-02-19 23:49:00,
2013-02-19 14:55:00,29.5,22.6,29.26,ESE,104,5.0,8.0,75,0.00,,,0.00,Wunderground v.1.15,2013-02-19 23:55:00,
2013-02-19 15:01:00,29.4,22.8,29.25,East,82,3.0,5.0,76,0.00,,,0.00,Wunderground v.1.15,2013-02-20 00:01:00,
2013-02-19 15:07:00,29.0,22.7,29.25,ESE,107,6.0,11.0,77,0.00,,,0.00,Wunderground v.1.15,2013-02-20 00:07:00,
2013-02-19 15:12:00,28.8,23.4,29.24,ENE,69,6.0,12.0,80,0.00,,,0.00,Wunderground v.1.15,2013-02-20 00:12:00,
2013-02-19 15:19:00,28.6,23.8,29.23,East,89,5.0,12.0,82,0.00,,,0.00,Wunderground v.1.15,2013-02-20 00:19:00,
2013-02-19 15:25:00,28.7,23.9,29.22,East,89,5.0,9.0,82,0.00,,,0.00,Wunderground v.1.15,2013-02-20 00:25:00,
2013-02-19 15:31:00,29.0,23.9,29.21,East,94,5.0,6.0,81,0.00,,,0.00,Wunderground v.1.15,2013-02-20 00:31:00,
2013-02-19 15:36:00,29.2,24.1,29.21,ENE,68,5.0,7.0,81,0.00,,,0.00,Wunderground v.1.15,2013-02-20 00:36:00,
2013-02-19 15:42:00,29.3,23.6,29.20,NNE,32,6.0,8.0,79,0.00,,,0.00,Wunderground v.1.15,2013-02-20 00:42:00,
2013-02-19 15:48:00,29.2,23.2,29.20,ESE,106,7.0,10.0,78,0.00,,,0.00,Wunderground v.1.15,2013-02-20 00:48:00,
2013-02-19 15:53:00,29.6,23.0,29.20,ESE,104,7.0,13.0,76,0.00,,,0.00,Wunderground v.1.15,2013-02-20 00:53:00,
2013-02-19 15:59:00,30.1,23.4,29.19,East,79,9.0,20.0,76,0.00,,,0.00,Wunderground v.1.15,2013-02-20 00:59:00,
2013-02-19 16:05:00,30.3,23.3,29.19,East,91,10.0,11.0,75,0.00,,,0.00,Wunderground v.1.15,2013-02-20 01:05:00,
2013-02-19 16:11:00,30.1,22.8,29.19,NE,44,8.0,8.0,74,0.00,,,0.00,Wunderground v.1.15,2013-02-20 01:11:00,
2013-02-19 16:16:00,30.1,23.1,29.19,NE,41,9.0,14.0,75,0.00,,,0.00,Wunderground v.1.15,2013-02-20 01:16:00,
2013-02-19 16:23:00,30.0,22.7,29.19,South,173,8.0,9.0,74,0.00,,,0.00,Wunderground v.1.15,2013-02-20 01:23:00,
2013-02-19 16:29:00,29.7,22.4,29.18,East,89,7.0,15.0,74,0.00,,,0.00,Wunderground v.1.15,2013-02-20 01:29:00,
2013-02-19 16:35:00,29.8,22.2,29.18,ESE,115,8.0,8.0,73,0.00,,,0.00,Wunderground v.1.15,2013-02-20 01:35:00,
2013-02-19 16:40:00,29.6,22.6,29.18,ENE,65,6.0,6.0,75,0.00,,,0.00,Wunderground v.1.15,2013-02-20 01:40:00,
2013-02-19 16:46:00,29.3,22.7,29.18,NNE,29,5.0,7.0,76,0.00,,,0.00,Wunderground v.1.15,2013-02-20 01:46:00,
2013-02-19 16:52:00,28.9,22.6,29.18,NNE,25,4.0,7.0,77,0.00,,,0.00,Wunderground v.1.15,2013-02-20 01:52:00,
2013-02-19 16:57:00,28.4,22.7,29.18,East,79,5.0,10.0,79,0.00,,,0.00,Wunderground v.1.15,2013-02-20 01:57:00,
2013-02-19 17:03:00,27.8,22.7,29.18,East,94,5.0,6.0,81,0.00,,,0.00,Wunderground v.1.15,2013-02-20 02:03:00,
2013-02-19 17:09:00,27.3,22.5,29.17,NE,49,5.0,9.0,82,0.00,,,0.00,Wunderground v.1.15,2013-02-20 02:09:00,
2013-02-19 17:15:00,26.9,22.4,29.16,East,94,5.0,7.0,83,0.00,,,0.00,Wunderground v.1.15,2013-02-20 02:15:00,
2013-02-19 17:20:00,26.7,22.2,29.16,NE,40,6.0,6.0,83,0.00,,,0.00,Wunderground v.1.15,2013-02-20 02:20:00,
2013-02-19 17:27:00,26.9,21.8,29.16,ENE,77,8.0,12.0,81,0.00,,,0.00,Wunderground v.1.15,2013-02-20 02:27:00,
2013-02-19 17:33:00,26.9,21.6,29.16,East,86,8.0,18.0,80,0.00,,,0.00,Wunderground v.1.15,2013-02-20 02:33:00,
2013-02-19 17:39:00,27.1,21.5,29.16,East,80,7.0,18.0,79,0.00,,,0.00,Wunderground v.1.15,2013-02-20 02:39:00,
2013-02-19 17:44:00,27.3,21.3,29.15,ENE,68,6.0,10.0,78,0.00,,,0.00,Wunderground v.1.15,2013-02-20 02:44:00,
2013-02-19 17:50:00,27.4,21.4,29.15,ESE,111,5.0,10.0,78,0.00,,,0.00,Wunderground v.1.15,2013-02-20 02:50:00,
2013-02-19 17:56:00,27.3,21.3,29.15,SE,136,5.0,6.0,78,0.00,,,0.00,Wunderground v.1.15,2013-02-20 02:56:00,
2013-02-19 18:01:00,27.5,21.8,29.14,NE,54,6.0,6.0,79,0.00,,,0.00,Wunderground v.1.15,2013-02-20 03:01:00,
2013-02-19 18:07:00,27.5,22.1,29.13,North,355,6.0,13.0,80,0.00,,,0.00,Wunderground v.1.15,2013-02-20 03:07:00,
2013-02-19 18:13:00,27.4,21.7,29.13,NE,49,5.0,7.0,79,0.00,,,0.00,Wunderground v.1.15,2013-02-20 03:13:00,
2013-02-19 18:19:00,27.3,21.9,29.14,ESE,103,5.0,7.0,80,0.00,,,0.00,Wunderground v.1.15,2013-02-20 03:19:00,
2013-02-19 18:24:00,27.2,21.8,29.13,East,79,5.0,8.0,80,0.00,,,0.00,Wunderground v.1.15,2013-02-20 03:24:00,
2013-02-19 18:31:00,27.1,21.7,29.13,SE,133,4.0,4.0,80,0.00,,,0.00,Wunderground v.1.15,2013-02-20 03:31:00,
2013-02-19 18:37:00,27.2,21.8,29.13,East,96,3.0,6.0,80,0.00,,,0.00,Wunderground v.1.15,2013-02-20 03:37:00,
2013-02-19 18:43:00,27.2,21.8,29.12,East,99,4.0,6.0,80,0.00,,,0.00,Wunderground v.1.15,2013-02-20 03:43:00,
2013-02-19 18:48:00,27.3,22.2,29.12,East,89,3.0,6.0,81,0.00,,,0.00,Wunderground v.1.15,2013-02-20 03:48:00,
2013-02-19 18:54:00,27.1,21.7,29.12,ENE,58,4.0,9.0,80,0.00,,,0.00,Wunderground v.1.15,2013-02-20 03:54:00,
2013-02-19 19:00:00,26.9,21.6,29.12,NE,44,6.0,10.0,80,0.00,,,0.00,Wunderground v.1.15,2013-02-20 04:00:00,
2013-02-19 19:06:00,26.4,20.8,29.12,NE,52,8.0,11.0,79,0.00,,,0.00,Wunderground v.1.15,2013-02-20 04:06:00,
2013-02-19 19:11:00,26.1,20.8,29.12,East,85,9.0,10.0,80,0.00,,,0.00,Wunderground v.1.15,2013-02-20 04:11:00,
2013-02-19 19:18:00,25.8,20.8,29.11,East,96,8.0,13.0,81,0.00,,,0.00,Wunderground v.1.15,2013-02-20 04:18:00,
2013-02-19 19:24:00,25.8,21.1,29.10,East,96,9.0,13.0,82,0.00,,,0.00,Wunderground v.1.15,2013-02-20 04:24:00,
2013-02-19 19:30:00,25.7,20.4,29.11,East,94,9.0,13.0,80,0.00,,,0.00,Wunderground v.1.15,2013-02-20 04:30:00,
2013-02-19 19:35:00,25.5,19.9,29.10,ESE,115,9.0,12.0,79,0.00,,,0.00,Wunderground v.1.15,2013-02-20 04:35:00,
2013-02-19 19:41:00,25.3,19.7,29.10,ESE,120,9.0,9.0,79,0.00,,,0.00,Wunderground v.1.15,2013-02-20 04:41:00,
2013-02-19 19:47:00,25.1,19.8,29.10,SSE,160,7.0,9.0,80,0.00,,,0.00,Wunderground v.1.15,2013-02-20 04:47:00,
2013-02-19 19:52:00,25.2,20.2,29.09,ESE,108,8.0,11.0,81,0.00,,,0.00,Wunderground v.1.15,2013-02-20 04:52:00,
2013-02-19 19:58:00,25.3,20.0,29.09,ESE,117,9.0,11.0,80,0.00,,,0.00,Wunderground v.1.15,2013-02-20 04:58:00,
2013-02-19 20:01:00,25.3,20.0,29.10,SE,128,8.0,8.0,80,0.00,,,0.00,Wunderground v.1.15,2013-02-20 05:01:00,
2013-02-19 20:02:00,25.3,20.0,29.09,SSE,152,8.0,8.0,80,0.00,,,0.00,Wunderground v.1.15,2013-02-20 05:02:00,
2013-02-19 20:04:00,25.4,20.1,29.10,SE,131,8.0,8.0,80,0.00,,,0.00,Wunderground v.1.15,2013-02-20 05:04:00,
2013-02-19 20:10:00,25.5,20.5,29.09,ESE,116,7.0,9.0,81,0.00,,,0.00,Wunderground v.1.15,2013-02-20 05:10:00,
2013-02-19 20:15:00,25.4,20.4,29.09,ESE,108,9.0,15.0,81,0.00,,,0.00,Wunderground v.1.15,2013-02-20 05:15:00,
2013-02-19 20:22:00,25.4,20.4,29.09,SE,135,10.0,14.0,81,0.00,,,0.00,Wunderground v.1.15,2013-02-20 05:22:00,
2013-02-19 20:28:00,25.3,20.6,29.09,SE,143,9.0,14.0,82,0.00,,,0.00,Wunderground v.1.15,2013-02-20 05:28:00,
2013-02-19 20:34:00,25.3,20.9,29.09,SSE,152,9.0,10.0,83,0.00,,,0.00,Wunderground v.1.15,2013-02-20 05:34:00,
2013-02-19 20:39:00,25.3,20.9,29.09,South,171,9.0,11.0,83,0.00,,,0.00,Wunderground v.1.15,2013-02-20 05:39:00,
2013-02-19 20:45:00,25.3,21.1,29.09,SSE,149,10.0,14.0,84,0.00,,,0.00,Wunderground v.1.15,2013-02-20 05:45:00,
2013-02-19 20:51:00,25.3,21.1,29.09,SSE,160,10.0,10.0,84,0.00,,,0.00,Wunderground v.1.15,2013-02-20 05:51:00,
2013-02-19 20:57:00,25.5,21.1,29.09,SE,143,9.0,12.0,83,0.00,,,0.00,Wunderground v.1.15,2013-02-20 05:57:00,
2013-02-19 21:02:00,25.6,21.2,29.09,SSE,162,9.0,13.0,83,0.00,,,0.00,Wunderground v.1.15,2013-02-20 06:02:00,
2013-02-19 21:09:00,25.8,21.1,29.09,SE,146,10.0,13.0,82,0.00,,,0.00,Wunderground v.1.15,2013-02-20 06:09:00,
2013-02-19 21:15:00,25.9,21.2,29.09,SSE,156,9.0,13.0,82,0.00,,,0.00,Wunderground v.1.15,2013-02-20 06:15:00,
2013-02-19 21:21:00,26.0,21.3,29.09,South,172,8.0,8.0,82,0.00,,,0.00,Wunderground v.1.15,2013-02-20 06:21:00,
2013-02-19 21:26:00,26.0,21.5,29.08,SSE,155,7.0,13.0,83,0.00,,,0.00,Wunderground v.1.15,2013-02-20 06:26:00,
2013-02-19 21:32:00,26.0,21.8,29.08,SE,143,8.0,15.0,84,0.00,,,0.00,Wunderground v.1.15,2013-02-20 06:32:00,
2013-02-19 21:38:00,26.0,21.8,29.08,SE,139,10.0,15.0,84,0.00,,,0.00,Wunderground v.1.15,2013-02-20 06:38:00,
2013-02-19 21:44:00,25.9,21.7,29.08,SSE,148,11.0,12.0,84,0.00,,,0.00,Wunderground v.1.15,2013-02-20 06:44:00,
2013-02-19 21:49:00,25.9,21.7,29.07,SSE,166,10.0,12.0,84,0.00,,,0.00,Wunderground v.1.15,2013-02-20 06:49:00,
2013-02-19 21:55:00,25.9,21.7,29.07,South,169,9.0,10.0,84,0.00,,,0.00,Wunderground v.1.15,2013-02-20 06:55:00,
2013-02-19 22:00:00,26.0,21.5,29.07,SSE,156,9.0,14.0,83,0.00,,,0.00,Wunderground v.1.15,2013-02-20 07:00:00,
2013-02-19 22:06:00,26.1,21.6,29.07,SSE,162,9.0,14.0,83,0.00,,,0.00,Wunderground v.1.15,2013-02-20 07:06:00,
2013-02-19 22:12:00,26.2,21.7,29.06,SSE,152,9.0,12.0,83,0.00,,,0.00,Wunderground v.1.15,2013-02-20 07:12:00,
2013-02-19 22:18:00,26.3,21.8,29.06,SSE,158,10.0,13.0,83,0.00,,,0.00,Wunderground v.1.15,2013-02-20 07:18:00,
2013-02-19 22:23:00,26.3,21.8,29.06,SSE,158,10.0,10.0,83,0.00,,,0.00,Wunderground v.1.15,2013-02-20 07:23:00,
2013-02-19 22:30:00,26.3,21.8,29.06,SSE,158,9.0,13.0,83,0.00,,,0.00,Wunderground v.1.15,2013-02-20 07:30:00,
2013-02-19 22:36:00,26.5,22.0,29.05,South,178,9.0,12.0,83,0.00,,,0.00,Wunderground v.1.15,2013-02-20 07:36:00,
2013-02-19 22:42:00,26.6,22.1,29.05,SE,142,8.0,8.0,83,0.00,,,0.00,Wunderground v.1.15,2013-02-20 07:42:00,
2013-02-19 22:47:00,26.7,22.2,29.05,South,181,8.0,10.0,83,0.00,,,0.00,Wunderground v.1.15,2013-02-20 07:47:00,
2013-02-19 22:53:00,26.7,22.2,29.05,SSE,155,8.0,8.0,83,0.00,,,0.00,Wunderground v.1.15,2013-02-20 07:53:00,
2013-02-19 22:59:00,26.8,22.3,29.05,South,186,6.0,8.0,83,0.00,,,0.00,Wunderground v.1.15,2013-02-20 07:59:00,
2013-02-19 23:05:00,27.0,22.5,29.05,SSW,193,5.0,11.0,83,0.00,,,0.00,Wunderground v.1.15,2013-02-20 08:05:00,
2013-02-19 23:11:00,27.1,22.6,29.05,SSE,153,5.0,8.0,83,0.00,,,0.00,Wunderground v.1.15,2013-02-20 08:11:00,
2013-02-19 23:17:00,27.2,22.7,29.05,SSW,196,5.0,8.0,83,0.00,,,0.00,Wunderground v.1.15,2013-02-20 08:17:00,
2013-02-19 23:22:00,27.3,22.8,29.06,SSW,205,5.0,5.0,83,0.00,,,0.00,Wunderground v.1.15,2013-02-20 08:22:00,
2013-02-19 23:28:00,27.4,22.6,29.05,South,191,4.0,9.0,82,0.00,,,0.00,Wunderground v.1.15,2013-02-20 08:28:00,
2013-02-19 23:34:00,27.5,22.7,29.05,SSE,163,6.0,8.0,82,0.00,,,0.00,Wunderground v.1.15,2013-02-20 08:34:00,
2013-02-19 23:39:00,27.5,22.4,29.05,SSE,155,6.0,8.0,81,0.00,,,0.00,Wunderground v.1.15,2013-02-20 08:39:00,
2013-02-19 23:45:00,27.4,22.3,29.05,SE,136,7.0,11.0,81,0.00,,,0.00,Wunderground v.1.15,2013-02-20 08:45:00,
2013-02-19 23:51:00,27.4,22.3,29.04,SSE,153,7.0,7.0,81,0.00,,,0.00,Wunderground v.1.15,2013-02-20 08:51:00,
2013-02-19 23:57:00,27.3,22.2,29.04,SSE,159,7.0,9.0,81,0.00,,,0.00,Wunderground v.1.15,2013-02-20 08:57:00,